Jacob Allen

首席球探 - Gillingham
25 三月 2027
星期四
處理

性格

適應力 (18) 野心 (9) 爭議性 (6) 忠誠度 (2) 抗壓 (18) 職業素養 (3) 體育精神 (19) 性情 (11)

個人檔案

執教風格 民主型
教練證照 洲際職業級
決心 4
人員管理 3
激勵 5
紀律 7
工作滿意度
50%
疲勞度
0%
職務 首席球探
薪資 40.6K 每週
合約 14.03.2030

性能

行為 普通
訓練效果
11%
球員發展
15%
傷病預防
40%
戰術執行
25%

近期事件

参加了招募会议 7天前
参加了招募会议 14天前
参加了招募会议 21天前
参加了招募会议 28天前
参加了招募会议 35天前
参加了招募会议 42天前
参加了招募会议 49天前
参加了招募会议 56天前

正在监控

111
球員 俱樂部 狀態 能力 信心 已观察 最后观察 最新投票
Dylan Duffy Chesterfield 活跃 90 / 106 41% 1 01.01.2027 -
Bence Pethő Vasas 活跃 118 / 112 40% 1 29.12.2026 -
Claudio Morra Vicenza 活跃 106 / 104 40% 1 29.12.2026 -
Luke Baartman Chippa United 活跃 108 / 121 40% 2 28.12.2026 -
Dilan Ortíz Ufa 活跃 109 / 99 40% 1 28.12.2026 -
Samuel Tetteh Wa All Stars 活跃 104 / 106 40% 3 27.12.2026 -
Ismaïl Ouro-Agoro Al Gaish 活跃 110 / 96 40% 1 27.12.2026 -
Ilja Safronov Rotor 活跃 79 / 92 40% 1 22.12.2026 -
Migran Ageyan Ufa 活跃 75 / 78 40% 1 22.12.2026 -
Samuel Adegbenro Dynamo Kyiv 活跃 110 / 134 40% 4 21.12.2026 -
Chukwuemeka Obioma Abia Warriors 活跃 103 / 102 40% 2 21.12.2026 -
Harry Smith Barnet 活跃 86 / 101 40% 2 20.12.2026 -
Milan Vidakov Radnicki 1923 活跃 117 / 107 40% 1 20.12.2026 -
Jacobo Alcalde SKA Khabarovsk 活跃 75 / 73 40% 1 19.12.2026 -
Damir Céter Hamrun Spartans 活跃 101 / 109 40% 1 19.12.2026 -
Maksym Voitikhovskyi Bukovyna 活跃 75 / 89 40% 1 18.12.2026 -
Louis Appéré Cambridge United 活跃 99 / 100 40% 1 17.12.2026 -
Mohamed Ofkir Valerenga 活跃 93 / 90 40% 1 17.12.2026 -
Álex Arce Independiente Rivadavia 活跃 139 / 131 40% 4 15.12.2026 -
Dmytro Shastal Livyi Bereh 活跃 105 / 97 40% 2 15.12.2026 -
Kingsley Eduwo El Masry 活跃 104 / 102 40% 1 14.12.2026 -
Oto John CR Belouizdad 活跃 119 / 122 40% 1 13.12.2026 -
Robert Murić Floriana 活跃 101 / 108 40% 3 12.12.2026 -
Denys Ustymenko Obolon 活跃 80 / 78 40% 1 12.12.2026 -
Ivan Luquetta Neftekhimik 活跃 73 / 111 40% 2 11.12.2026 -
Felipe Fernández Vorskla 活跃 79 / 87 40% 2 11.12.2026 -
Samuel Amoah Liberty Professionals 活跃 88 / 90 40% 3 10.12.2026 -
Zvonimir Boric Zadar 活跃 118 / 123 40% 1 08.12.2026 -
Sebastian Soto ES Ben Aknoun 活跃 109 / 117 40% 1 08.12.2026 -
Javi Zarzo Viitorul 活跃 91 / 103 40% 1 07.12.2026 -
Joseph Atule Barau 活跃 89 / 105 40% 1 07.12.2026 -
Luca Martínez Dupuy Godoy Cruz 活跃 122 / 126 40% 1 05.12.2026 -
Bruno Zdunić Dugopolje 活跃 118 / 94 40% 1 05.12.2026 -
Beryly Lubala CSKA 1948 活跃 105 / 114 40% 1 02.12.2026 -
Alexandr Yushin Torpedo Moscow 活跃 101 / 116 40% 1 02.12.2026 -
Thomas Agyepong Berekum Chelsea 活跃 81 / 102 40% 2 01.12.2026 -
David Barbona Defensa y Justicia 活跃 146 / 106 40% 4 30.11.2026 -
Lazar Tufegdžić Cukaricki 活跃 111 / 121 40% 1 30.11.2026 -
Anthony Lokosa Tarxien Rainbows 活跃 111 / 98 40% 2 29.11.2026 -
Danyil Alefirenko Chornomorets 活跃 121 / 110 40% 1 29.11.2026 -
Barna Tóth Paksi 活跃 105 / 121 40% 1 27.11.2026 -
Emiliano Marcondes OB 活跃 110 / 127 40% 3 26.11.2026 -
Kane Drummond Oldham Athletic 活跃 102 / 88 40% 1 25.11.2026 -
Lincoln Spartak Subotica 活跃 115 / 108 40% 1 25.11.2026 -
Themba Manyama Ajax Cape Town 活跃 82 / 108 40% 2 21.11.2026 -
Lucio Castillo Colegiales 活跃 120 / 104 40% 2 20.11.2026 -
Igor Ivanović Radnik Surdulica 活跃 96 / 98 40% 1 18.11.2026 -
Stefan Vukić Rudes 活跃 119 / 101 40% 2 17.11.2026 -
Suleiman Abdullahi Military Production 活跃 87 / 85 40% 3 15.11.2026 -
Claudio Salto Almagro 活跃 87 / 103 40% 3 15.11.2026 -
John Okoye Ebuka Ittihad 活跃 132 / 137 40% 1 10.11.2026 -
Jesper Cornelius IK Start 活跃 83 / 86 40% 1 08.11.2026 -
Ivan Delić Dugopolje 活跃 85 / 97 40% 1 07.11.2026 -
Paschal Durugbor Warri Wolves 活跃 99 / 80 40% 1 06.11.2026 -
Victor Mbaoma Tusker 活跃 88 / 115 40% 3 05.11.2026 -
Lukáš Juliš MSK Zilina 活跃 101 / 102 40% 1 04.11.2026 -
Marcelo Torres Gimnasia La Plata 活跃 143 / 103 40% 1 04.11.2026 -
Claudio Villagra Godoy Cruz 活跃 114 / 121 40% 3 03.11.2026 -
Yeangel Montero Naxxar Lions 活跃 105 / 114 40% 1 03.11.2026 -
Kimani Stewart-Baynes Colorado Rapids 活跃 73 / 96 40% 2 31.10.2026 -
Maclyn Biokpo Jenewari Rivers United 活跃 115 / 114 40% 3 31.10.2026 -
Chinedu Geoffrey Krylya Sovetov 活跃 134 / 135 40% 1 30.10.2026 -
Ivo Costantino Danubio 活跃 133 / 118 40% 1 28.10.2026 -
Maximiliano Gómez Nacional 活跃 111 / 125 40% 1 28.10.2026 -
Franco Fagúndez Estudiantes 活跃 98 / 133 40% 2 25.10.2026 -
Fortune Bassey Rivers United 活跃 114 / 105 40% 1 24.10.2026 -
Ezequiel Almirón Estudiantes 活跃 119 / 117 40% 1 20.10.2026 -
Silas Nwankwo Police Union 活跃 118 / 76 40% 2 16.10.2026 -
Rodin Quiñónes Dinamo Batumi 活跃 95 / 89 40% 1 16.10.2026 -
Kagiso Malinga Bidvest Wits 活跃 77 / 109 40% 2 15.10.2026 -
Federico Martínez Liverpool Montevideo 活跃 116 / 129 40% 1 15.10.2026 -
Thokozani Khumalo Golden Arrows 活跃 94 / 105 40% 2 12.10.2026 -
Facundo Pons San Martín 活跃 122 / 95 40% 3 11.10.2026 -
Daniel Ríos CF Montreal 活跃 86 / 96 40% 2 10.10.2026 -
Thiago Calone All Boys 活跃 124 / 92 40% 1 08.10.2026 -
Patrick Schmidt Tarxien Rainbows 活跃 105 / 94 40% 1 07.10.2026 -
Agustín Gallo Tristán Suárez 活跃 133 / 90 40% 1 06.10.2026 -
Mykola Haiduchyk Polissia 活跃 86 / 130 40% 1 05.10.2026 -
Lucas Cano All Boys 活跃 96 / 99 40% 1 05.10.2026 -
Alejandro Melo Temperley 活跃 128 / 126 40% 4 04.10.2026 -
Santiago Sala Güemes 活跃 131 / 104 40% 1 04.10.2026 -
Evidence Mokoena Platinum Stars 活跃 104 / 101 40% 3 27.09.2026 -
Gerardo Valenzuela FC Cincinnati 活跃 102 / 119 40% 1 27.09.2026 -
Enzo González Defensores 活跃 125 / 115 40% 1 25.09.2026 -
Michael Nike Patriotas 活跃 126 / 115 40% 1 24.09.2026 -
Gonzalo Berterame Morón 活跃 136 / 126 40% 2 20.09.2026 -
Daniel Valencia America de Cali 活跃 124 / 107 40% 1 19.09.2026 -
Ibrahim Aliyu Houston Dynamo 活跃 129 / 101 40% 1 18.09.2026 -
Lucas Carrizo Plaza Colonia 活跃 105 / 117 40% 1 18.09.2026 -
Enzo Cabrera Danubio 活跃 125 / 102 40% 1 16.09.2026 -
Santiago Apa All Boys 活跃 111 / 128 40% 1 16.09.2026 -
Jerome Karelse Golden Arrows 活跃 112 / 121 40% 2 14.09.2026 -
Ramiro Ruiz Rodríguez Atlético Tucumán 活跃 132 / 132 40% 1 14.09.2026 -
Robert Mizo Remo Stars 活跃 101 / 93 40% 1 13.09.2026 -
Renzo Reynaga Patronato 活跃 120 / 121 40% 1 10.09.2026 -
Lazar Mijović Cukaricki 活跃 120 / 123 40% 1 10.09.2026 -
Octavio Bianchi HNK Vukovar 1991 活跃 95 / 109 40% 1 08.09.2026 -
Facundo Castro Nueva Chicago 活跃 92 / 103 40% 1 07.09.2026 -
Matías Samaniego Talleres 活跃 78 / 114 40% 1 07.09.2026 -
Nicolás Sosa Racing 活跃 89 / 101 40% 1 06.09.2026 -
Edwar López Deportes Tolima 活跃 126 / 125 40% 1 04.09.2026 -
Timothy Zechariah Rivers United 活跃 109 / 95 40% 2 29.08.2026 -
Kyogo Furuhashi LA Galaxy 活跃 133 / 106 40% 2 28.08.2026 -
Solly Khunyedi Bloemfontein Celtic 活跃 83 / 77 40% 2 28.08.2026 -
Joe Abrigo Palestino 活跃 107 / 112 40% 1 24.08.2026 -
Ciprian Coman Pandurii 活跃 103 / 115 40% 1 24.08.2026 -
Kevin Méndez Union La Calera 活跃 107 / 87 40% 1 23.08.2026 -
Facundo de León Progreso 活跃 93 / 123 40% 1 18.08.2026 -
Jules-Anthony Vilsaint Toronto FC 活跃 96 / 104 40% 1 17.08.2026 -
Alexis Rodríguez Banfield 活跃 93 / 88 40% 1 17.08.2026 -
Lebo Mothiba Mamelodi Sundowns 活跃 120 / 92 40% 1 01.08.2026 -